Regional Weather Roundup
Issued by NWS

Home | Current Version | Previous Version | Text Only | Print | Product List | Glossary On
Versions: 1 2 3 4 5 6 7 8 9 10 11 12 13 14 15 16 17 18 19 20 21 22 23 24 25 26 27 28 29 30 31 32 33 34 35 36 37 38 39 40 41 42 43 44 45 46 47 48 49 50
000
ASUS43 KFSD 191110
RWRSD

WEATHER ROUNDUP FOR SOUTH DAKOTA
NATIONAL WEATHER SERVICE SIOUX FALLS SD
500 AM CST SUN NOV 19 2017

NOTE: "FAIR" INDICATES FEW OR NO CLOUDS BELOW 12,000 FEET WITH NO
SIGNIFICANT WEATHER AND/OR OBSTRUCTIONS TO VISIBILITY.


SDZ001>005-009-010-012>017-191200-
NORTHWEST AND NORTH CENTRAL SOUTH DAKOTA

CITY           SKY/WX    TMP DP  RH WIND       PRES   REMARKS
BUFFALO          N/A     29  18  63 W10       29.91F WCI  20
FAITH            N/A     25  20  81 SW10      29.99F WCI  15
MOBRIDGE       CLOUDY    23  19  85 SE5       29.99F WCI  17
$$

SDZ012>016-024>037-041>051-057-063-072>074-191200-
SOUTHWEST AND SOUTH CENTRAL SOUTH DAKOTA

CITY           SKY/WX    TMP DP  RH WIND       PRES   REMARKS
RAPID CTY ARPT CLOUDY    20  12  71 CALM      30.02F
PIERRE         CLEAR     27  22  81 SW8       30.06F WCI  19
CUSTER         CLEAR     26  12  55 W9        30.01F WCI  17
ELLSWORTH AFB  CLOUDY    25  15  66 SW3       30.00F
PHILIP         CLEAR     26  20  77 W8        30.06F WCI  18
PINE RIDGE     CLEAR     21  16  81 W5        30.09F WCI  15
SPEARFISH      FAIR      39  12  33 W12G21    30.00R
WINNER         FAIR      31  21  66 SW7       30.10F WCI  24
$$

SDZ004>011-016>023-039-040-191200-
NORTHEAST SOUTH DAKOTA

CITY           SKY/WX    TMP DP  RH WIND       PRES   REMARKS
ABERDEEN       CLOUDY    16  14  92 S5        30.04F WCI   9
WATERTOWN      CLEAR     18  14  84 SW7       30.03F WCI   9
BROOKINGS      CLEAR     19  14  81 SW5       30.08S WCI  12
SISSETON         N/A     27  17  66 W9        30.00F WCI  18
$$

SDZ017-020-022-023-036>040-048>070-191200-
SOUTHEAST SOUTH DAKOTA

CITY           SKY/WX    TMP DP  RH WIND       PRES   REMARKS
SIOUX FALLS    CLEAR     22  18  85 VRB3      30.11F
HURON          CLOUDY    22  18  85 S6        30.08F WCI  14
CHAMBERLAIN    CLOUDY    25  23  90 CALM      30.10S
MITCHELL       CLEAR     25  19  78 SW8       30.11F WCI  16
YANKTON        CLOUDY    23  22  96 SW5       30.13F WCI  17
$$

ABBREVIATIONS USED IN REMARKS
   TC - TEMPERATURE IN CELSIUS
  WCI - WIND CHILL INDEX
   HX - HEAT INDEX
  VSB - VISIBILITY





USA.gov is the U.S. government's official web portal to all federal, state and local government web resources and services.